Retour au catalogue

STARLINK-35829

ActifCommunicationsVLEO
NORAD 66350·PAYLOAD·🇺🇸 United States

Lancé Nov 6, 2025 depuis Vandenberg Space Force Base

Loading…

Prochains Passages (prochaines 24 heures)

TLE

FraisSource: CelesTrak SupGP

Époque: Sep 15, 2026, 03:22 UTC

1 66350C 25254C   26258.14076389 -.00031172  00000+0 -10028-2 0  2585
2 66350  53.1574  71.2024 0001268  88.9412 119.0146 15.31705781    13

Suivez STARLINK-35829 en temps réel avec AllMySat

Download on the App Store